Location: Boca de Tacagua
(10.5333°N, 66.9833°W)
Time: 20:00:17
(UTC+00:00)

XW-2D - Pass Details

Date: 06 April 2023
Orbit: 475 x 489 km, 97.5° (Epoch: 01 June)

Event Time Altitude Azimuth Distance (km) Brightness Sun altitude
Rises 23:03:19 0° 203° (SSW) 2,522 ? -6.8°
Reaches altitude 10° 23:06:15 10° 230° (SW) 1,640 ? -7.5°
Maximum altitude 23:08:01 13° 261° (W) 1,442 ? -8.0°
Drops below altitude 10° 23:09:47 10° 291° (WNW) 1,637 ? -8.4°
Sets 23:12:43 0° 319° (NW) 2,513 ? -9.1°
